Guiyang Longdongbao International

Airport
ICAO code: 
ZUGY
IATA Code: 
KWE
Summary
ICAO Region: 
APAC
Territory: 
Location: 
Guiyang, Guizhou,
Serving: 
Guiyang
Coordinates: 
Aerial View: 
26° 32' 26.491" N, 106° 48' 0.752" E
Metar
Observation
ZUGY 021900Z 20001MPS 6000 NSC 03/01 Q1027 NOSIG
Station
Guiyang
Date/Time
2021-12-02 19:00:00
Wind direction
200°
Lowest cloud amount
nil significant cloud
Temperature
3°C
Dew point
1°C
Humidity
86%
QNH
1027 hPa
Weather condition
n/a

Description

Guiyang Longdongbao International Airport is an airport in Guiyang, Guizhou, China..

Climatology

Within the Köppen Climate Classification System, ((Koppen climate classification Cwa)) this climate type generally has warm and humid summers with mild winters. Its extent is from 30 to 50° of latitude mainly on the eastern and western borders of most continents. During the winter, the main weather feature is the mid-latitude cyclone. Convective thunderstorms provide precipitation in the summer months.

Runways

Designator Length Width Surface Rops
1/19 3200 60 CON Yes/Yes
Airport map: 
Aerial View: 

SKYbrary Partners:

Safety knowledge contributed by: